Location: Baia de Cri?
(46.1667°N, 22.7167°E)
Time: 21:33:30
(UTC+00:00)

SJ 16-02 - Pass Details

Date: 15 January 2026
Orbit: 583 x 594 km, 75.0° (Epoch: 11 February)

Event Time Altitude Azimuth Distance (km) Brightness Sun altitude
Rises 04:43:17 0° 164° (SSE) 2,792 5.2 -14.3°
Reaches altitude 10° 04:45:51 10° 149° (SSE) 1,897 4.6 -13.8°
Maximum altitude 04:49:07 22° 99° (E) 1,292 4.0 -13.3°
Drops below altitude 10° 04:52:24 10° 48° (NE) 1,910 4.3 -12.8°
Sets 04:54:59 0° 33° (NNE) 2,817 4.9 -12.3°
